Location: Emblem
(62.4273°N, 6.4710°E)
Time: 20:00:52
(UTC+02:00)

Vanguard 2 - Pass Details

Date: 07 February 2023
Orbit: 553 x 2927 km, 32.9° (Epoch: 27 March)

Event Time Altitude Azimuth Distance (km) Brightness Sun altitude
Rises 00:51:52 0° 243° (WSW) 5,987 - -43.0°
Reaches altitude 10° 00:57:25 10° 227° (SW) 5,317 - -43.0°
Maximum altitude 01:06:47 18° 192° (SSW) 4,977 - -42.9°
Drops below altitude 10° 01:16:49 10° 157° (SSE) 5,743 - -42.8°
Sets 01:23:15 0° 142° (SE) 6,632 - -42.6°
